This is the latest recevied weather packets stored in our database for station/object VE8SKI. If no packets are shown the sender has not sent any weather packets the latest 10 day(s).
| Time | Temp. | Humidity | Pressure | Rain* | Wind** | Luminosity | Snow |
|---|---|---|---|---|---|---|---|
| 1777635372 | 2.78° C | 97% | 1007.9 hPa | 0 mm | 3.58 m/s, 1° | - | - |
| 1777635072 | 2.22° C | 97% | 1007.8 hPa | 0 mm | 4.47 m/s, 11° | - | - |
| 1777634772 | 2.22° C | 97% | 1007.7 hPa | 0 mm | 2.68 m/s, 30° | - | - |
| 1777634470 | 2.22° C | 97% | 1007.6 hPa | 0 mm | 4.02 m/s, 297° | - | - |
| 1777634170 | 2.22° C | 97% | 1007.6 hPa | 0 mm | 3.58 m/s, 359° | - | - |
| 1777633871 | 2.22° C | 97% | 1007.5 hPa | 0 mm | 4.02 m/s, 20° | - | - |
| 1777633571 | 2.22° C | 97% | 1007.5 hPa | 0 mm | 4.02 m/s, 10° | - | - |
| 1777633271 | 2.22° C | 97% | 1007.5 hPa | 0 mm | 3.13 m/s, 7° | - | - |
| 1777632972 | 2.22° C | 97% | 1007.5 hPa | 0 mm | 2.68 m/s, 31° | - | - |
| 1777632669 | 2.22° C | 97% | 1007.6 hPa | 0 mm | 3.13 m/s, 28° | - | - |
| 1777632370 | 2.22° C | 97% | 1007.6 hPa | 0 mm | 3.13 m/s, 359° | - | - |
| 1777632070 | 1.67° C | 97% | 1007.4 hPa | 0 mm | 2.68 m/s, 13° | - | - |
| 1777631770 | 1.67° C | 97% | 1007.4 hPa | 0 mm | 2.24 m/s, 39° | - | - |
| 1777631471 | 1.67° C | 96% | 1007.3 hPa | 0 mm | 1.34 m/s, 3° | - | - |
| 1777631171 | 1.67° C | 96% | 1007.2 hPa | 0 mm | 1.34 m/s, 0° | - | - |
| 1777630869 | 1.67° C | 96% | 1007.2 hPa | 0 mm | 0.89 m/s, 1° | - | - |
| 1777630569 | 1.67° C | 96% | 1007.1 hPa | 0 mm | 1.34 m/s, 359° | - | - |
| 1777630269 | 1.67° C | 96% | 1007.2 hPa | 0 mm | 0.89 m/s, 0° | - | - |
| 1777629969 | 1.67° C | 96% | 1007 hPa | 0 mm | 0.45 m/s, 6° | - | - |
| 1777629670 | 2.22° C | 96% | 1007 hPa | 0 mm | 0.89 m/s, 3° | - | - |
| 1777629370 | 2.22° C | 96% | 1006.7 hPa | 0 mm | 0.45 m/s, 7° | - | - |
| 1777629068 | 2.22° C | 95% | 1006.5 hPa | 0 mm | 0 m/s | - | - |
| 1777628768 | 2.22° C | 96% | 1006.2 hPa | 0 mm | 0.89 m/s, 0° | - | - |
| 1777628468 | 2.22° C | 95% | 1006.1 hPa | 0 mm | 0 m/s | - | - |
| 1777628169 | 2.22° C | 95% | 1006.1 hPa | 0 mm | 0 m/s | - | - |
* Rain latest hour (hover to see other rain measurements)
** Current wind speed in m/s (hover to see current wind gust speed)